TimeCDT,TemperatureF,Dew PointF,Humidity,Sea Level PressureIn,VisibilityMPH,Wind Direction,Wind SpeedMPH,Gust SpeedMPH,PrecipitationIn,Events,Conditions,WindDirDegrees,DateUTC
12:55 AM,46.9,45.0,93,30.15,10.0,SSE,3.5,-,N/A,,Clear,150,2012-09-16 05:55:00
1:55 AM,45.0,44.1,97,30.15,10.0,Calm,Calm,-,N/A,,Clear,0,2012-09-16 06:55:00
2:55 AM,45.0,44.1,97,30.13,10.0,Calm,Calm,-,N/A,,Clear,0,2012-09-16 07:55:00
3:55 AM,46.0,44.1,93,30.12,10.0,Calm,Calm,-,N/A,,Clear,0,2012-09-16 08:55:00
4:55 AM,45.0,44.1,97,30.12,9.0,Calm,Calm,-,N/A,,Clear,0,2012-09-16 09:55:00
5:55 AM,46.9,45.0,93,30.12,5.0,Calm,Calm,-,N/A,,Clear,0,2012-09-16 10:55:00
6:53 AM,46.4,44.6,93,30.11,2.5,Calm,Calm,-,N/A,,Clear,0,2012-09-16 11:53:00
6:55 AM,46.0,45.0,96,30.13,3.0,Calm,Calm,-,N/A,,Clear,0,2012-09-16 11:55:00
7:55 AM,52.0,50.0,93,30.13,7.0,Calm,Calm,-,N/A,,Clear,0,2012-09-16 12:55:00
8:55 AM,60.1,55.0,83,30.12,10.0,Calm,Calm,-,N/A,,Clear,0,2012-09-16 13:55:00
9:55 AM,64.9,55.9,73,30.12,10.0,South,3.5,-,N/A,,Clear,180,2012-09-16 14:55:00
10:55 AM,66.0,57.0,73,30.12,10.0,SSW,4.6,-,N/A,,Clear,200,2012-09-16 15:55:00
11:55 AM,70.0,59.0,68,30.10,10.0,SW,3.5,-,N/A,,Partly Cloudy,230,2012-09-16 16:55:00
12:55 PM,71.1,59.0,66,30.08,10.0,Calm,Calm,-,N/A,,Scattered Clouds,0,2012-09-16 17:55:00
1:03 PM,73.4,60.8,65,30.07,10.0,Variable,3.5,-,N/A,,Mostly Cloudy,0,2012-09-16 18:03:00
1:22 PM,73.4,60.8,65,30.06,10.0,Variable,3.5,-,N/A,,Mostly Cloudy,0,2012-09-16 18:22:00
1:55 PM,73.0,59.0,61,30.06,10.0,South,5.8,-,N/A,,Mostly Cloudy,180,2012-09-16 18:55:00
2:55 PM,72.0,60.1,66,30.04,10.0,South,3.5,-,N/A,,Overcast,180,2012-09-16 19:55:00
3:55 PM,73.9,60.1,62,30.02,10.0,SSW,4.6,-,N/A,,Mostly Cloudy,210,2012-09-16 20:55:00
4:55 PM,73.0,61.0,66,30.01,10.0,WSW,6.9,-,N/A,,Mostly Cloudy,240,2012-09-16 21:55:00
5:55 PM,72.0,61.0,68,30.00,10.0,Calm,Calm,-,N/A,,Mostly Cloudy,0,2012-09-16 22:55:00
6:55 PM,68.0,61.0,78,30.00,10.0,SSW,3.5,-,N/A,,Clear,210,2012-09-16 23:55:00
7:55 PM,62.1,60.1,93,29.99,10.0,Calm,Calm,-,N/A,,Clear,0,2012-09-17 00:55:00
8:55 PM,57.9,57.9,100,30.00,2.5,Calm,Calm,-,N/A,,Clear,0,2012-09-17 01:55:00
9:03 PM,57.2,57.2,100,30.00,1.2,Calm,Calm,-,N/A,,Clear,0,2012-09-17 02:03:00
9:09 PM,57.2,55.4,94,30.00,3.0,SW,3.5,-,N/A,,Clear,220,2012-09-17 02:09:00
9:55 PM,57.9,57.0,97,29.99,9.0,Calm,Calm,-,N/A,,Clear,0,2012-09-17 02:55:00
10:23 PM,57.2,57.2,100,29.99,1.5,Calm,Calm,-,N/A,,Clear,0,2012-09-17 03:23:00
10:33 PM,57.2,57.2,100,29.99,3.0,Calm,Calm,-,N/A,,Clear,0,2012-09-17 03:33:00
10:55 PM,57.9,57.0,97,29.99,2.0,Calm,Calm,-,N/A,,Clear,0,2012-09-17 03:55:00
11:04 PM,59.0,59.0,100,29.99,7.0,Calm,Calm,-,N/A,,Clear,0,2012-09-17 04:04:00
11:55 PM,57.9,57.9,100,29.99,5.0,South,3.5,-,N/A,,Clear,190,2012-09-17 04:55:00